PSLV R/B, 44805

Orbit data source: Space-Track

PSLV R/B, 44805 is space debris in SSO originally from a launch on Wed, 27 Nov 2019 UTC launched from the Sirharikota (SRI). Debris objects in space refer to the collection of defunct objects orbiting the Earth. Examples of debris include non-operational satellites, rocket bodies, and fragments generated from explosions, collisions, or faulty payload assembly.

Loading next visibility...
Identifier
44805, 2019-081B
Orbit
SSO
Country
Flag of ININ / IND
Related business
Manufacturer
VSSC/LPSC
Mission
Spacecraft
Bus & Motor
PS-4, Unknown motor
Mass
920 kg wet, 920 kg dry
Launch date (UTC)
2019-11-27 (6 years ago)
Launch vehicle
Unknown
Launch site
Sirharikota (SRI)
Object type
Payload
Rocket body
Debris
Shape & HBR
Cyl + Cyl + 2 Nozzle, 1.6 m
Radar Cross Section
6.185 m², Large (>1 m²)

Expand to show TLE details & history
Last TLE update: 20 hours ago

TLE from 20 hours ago
0 PSLV R/B
1 44805U 19081B   25257.99013184  .00014595  00000-0  33766-3 0  9998
2 44805  97.2172 293.8554 0026425  33.4265 326.8644 15.42199792321715
Epoch: 2025-09-14T23:45Z
TLE epoch observation values (Epoch: 2025-09-14T23:45:47.39Z)
Latitude
-0.00006°
Longitude
-56.79327°
Altitude
427.669 km
Speed
7.663 km/s
True Right ascension
19h 35m 25s
True Declination
0° 00' 00"
Sunlit
Object was in full shadow at epoch
Visualization orbit readout
Latitude
Unknown
Longitude
Unknown
Altitude
Unknown
Speed
Unknown
Apparent Right ascension
Unknown
Apparent Declination
Unknown
Sunlit
N/A
Visualization observer readout
Local Sidereal Time
12:52:46
Azimuth
Unknown
Elevation
Unknown
Doppler factor
Unknown
Orbital elements
Apogee altitude
454.554 km
Perigee altitude
418.539 km
Semi-major axis
6,814.684 km
Eccentricity
0.00264
Inclination
97.2172°
RAAN
293.8554°
Arg. of periapsis
33.4265°
True anomaly
326.69842°
Mean anomaly
326.8644°
Eccentric anomaly
326.78146°
Mean motion
3.85811 °/min
Orbital period
93.31 mins
BSTAR
0.00033766
Loading maneuver chart data...
Computing Atmospheric mass density...
Loading historical data...
Loading historical data...
Loading historical data...
Loading historical data...
Loading historical data...
Loading historical data...
Loading historical data...

Documentation

Showing up to 5 results
|